Year,Month,Day,Hour,Minute,Value (Times are PST for temperature in C)
2018,01,26,09,14,2.60
2018,01,26,09,15,2.60
2018,01,26,09,16,2.60
2018,01,26,09,17,2.60
2018,01,26,09,18,2.60
2018,01,26,09,19,2.60
2018,01,26,09,20,2.60
2018,01,26,09,21,2.60
2018,01,26,09,22,2.60
2018,01,26,09,23,2.60
2018,01,26,09,24,2.60
2018,01,26,09,25,2.70
2018,01,26,09,26,2.70
2018,01,26,09,27,2.70
2018,01,26,09,28,2.70
2018,01,26,09,29,2.70
2018,01,26,09,30,2.70
2018,01,26,09,31,2.70
2018,01,26,09,32,2.70
2018,01,26,09,33,2.70
2018,01,26,09,34,2.70
2018,01,26,09,35,2.70
2018,01,26,09,36,2.70
2018,01,26,09,37,2.70
2018,01,26,09,38,2.70
2018,01,26,09,39,2.70
2018,01,26,09,40,2.70
2018,01,26,09,41,2.70
2018,01,26,09,42,2.70
2018,01,26,09,43,2.80
2018,01,26,09,44,2.80
2018,01,26,09,45,2.80
2018,01,26,09,46,2.80
2018,01,26,09,47,2.80
2018,01,26,09,48,2.80
2018,01,26,09,49,2.80
2018,01,26,09,50,2.80
2018,01,26,09,51,2.80
2018,01,26,09,52,2.80
2018,01,26,09,53,2.80
2018,01,26,09,54,2.80
2018,01,26,09,55,2.80
2018,01,26,09,56,2.80
2018,01,26,09,57,2.80
2018,01,26,09,58,2.80
2018,01,26,09,59,2.80
2018,01,26,10,00,2.80
2018,01,26,10,01,2.80
2018,01,26,10,02,2.90
2018,01,26,10,03,2.90
2018,01,26,10,04,2.90
2018,01,26,10,05,2.90
2018,01,26,10,06,2.90
2018,01,26,10,07,2.90
2018,01,26,10,08,2.90
2018,01,26,10,09,2.90
2018,01,26,10,10,2.90
2018,01,26,10,11,2.90
2018,01,26,10,12,2.90
2018,01,26,10,13,2.90
2018,01,26,10,14,2.90
2018,01,26,10,15,2.90
2018,01,26,10,16,2.90
2018,01,26,10,17,2.80
2018,01,26,10,18,2.80
2018,01,26,10,19,2.80
2018,01,26,10,20,2.80
2018,01,26,10,21,2.90
2018,01,26,10,22,2.90
2018,01,26,10,23,2.90
2018,01,26,10,24,2.90
2018,01,26,10,25,2.90
2018,01,26,10,26,3.00
2018,01,26,10,27,3.10
2018,01,26,10,28,3.10
2018,01,26,10,29,3.10
2018,01,26,10,30,3.10
2018,01,26,10,31,3.20
2018,01,26,10,32,3.20
2018,01,26,10,33,3.20
2018,01,26,10,34,3.30
2018,01,26,10,35,3.30
2018,01,26,10,36,3.30
2018,01,26,10,37,3.30
2018,01,26,10,38,3.40
2018,01,26,10,39,3.40
2018,01,26,10,40,3.40
2018,01,26,10,41,3.50
2018,01,26,10,42,3.50
2018,01,26,10,43,3.60
2018,01,26,10,44,3.70
2018,01,26,10,45,3.70
2018,01,26,10,46,3.70
2018,01,26,10,47,3.70
2018,01,26,10,48,3.80
2018,01,26,10,49,3.80
2018,01,26,10,50,3.90
2018,01,26,10,51,3.90
2018,01,26,10,52,3.90
2018,01,26,10,53,4.00
2018,01,26,10,54,4.00
2018,01,26,10,55,4.10
2018,01,26,10,56,4.20
2018,01,26,10,57,4.20
2018,01,26,10,58,4.30
2018,01,26,10,59,4.30
2018,01,26,11,00,4.40
2018,01,26,11,01,4.50
2018,01,26,11,02,4.60
2018,01,26,11,03,4.60
2018,01,26,11,04,4.70
2018,01,26,11,05,4.70
2018,01,26,11,06,4.70
2018,01,26,11,07,4.70
2018,01,26,11,08,4.70
2018,01,26,11,09,4.70
2018,01,26,11,10,4.70
2018,01,26,11,11,4.70
2018,01,26,11,12,4.80
2018,01,26,11,13,4.80
2018,01,26,11,14,4.90
2018,01,26,11,15,4.90
2018,01,26,11,16,5.00
2018,01,26,11,17,5.00
2018,01,26,11,18,5.00
2018,01,26,11,19,5.10
2018,01,26,11,20,5.10
2018,01,26,11,21,5.10
2018,01,26,11,22,5.10
2018,01,26,11,23,5.20
2018,01,26,11,24,5.20
2018,01,26,11,25,5.20
2018,01,26,11,26,5.30
2018,01,26,11,27,5.30
2018,01,26,11,28,5.40
2018,01,26,11,29,5.40
2018,01,26,11,30,5.50
2018,01,26,11,31,5.60
2018,01,26,11,32,5.70
2018,01,26,11,33,5.80
2018,01,26,11,34,5.90
2018,01,26,11,35,5.90
2018,01,26,11,36,6.00
2018,01,26,11,37,6.10
2018,01,26,11,38,6.20
2018,01,26,11,39,6.20
2018,01,26,11,40,6.30
2018,01,26,11,41,6.40
2018,01,26,11,42,6.40
2018,01,26,11,43,6.50
2018,01,26,11,44,6.50
2018,01,26,11,45,6.50
2018,01,26,11,46,6.60
2018,01,26,11,47,6.60
2018,01,26,11,48,6.60
2018,01,26,11,49,6.70
2018,01,26,11,50,6.70
2018,01,26,11,51,6.70
2018,01,26,11,52,6.70
2018,01,26,11,53,6.70
2018,01,26,11,54,6.70
2018,01,26,11,55,6.70
2018,01,26,11,56,6.70
2018,01,26,11,57,6.70
2018,01,26,11,58,6.70
2018,01,26,11,59,6.80
2018,01,26,12,00,6.80
2018,01,26,12,01,6.80
2018,01,26,12,02,6.90
2018,01,26,12,03,6.90
2018,01,26,12,04,7.00
2018,01,26,12,05,7.00
2018,01,26,12,06,7.10
2018,01,26,12,07,7.10
2018,01,26,12,08,7.10
2018,01,26,12,09,7.10
2018,01,26,12,10,7.10
2018,01,26,12,11,7.10
2018,01,26,12,12,7.20
2018,01,26,12,13,7.20
2018,01,26,12,14,7.20
2018,01,26,12,15,7.30
2018,01,26,12,16,7.30
2018,01,26,12,17,7.30
2018,01,26,12,18,7.30
2018,01,26,12,19,7.30
2018,01,26,12,20,7.30
2018,01,26,12,21,7.20
2018,01,26,12,23,7.10
2018,01,26,12,24,7.10
2018,01,26,12,25,7.00
2018,01,26,12,26,7.00
2018,01,26,12,27,6.90
2018,01,26,12,28,6.90
2018,01,26,12,29,6.90
2018,01,26,12,30,6.90
2018,01,26,12,31,6.90
2018,01,26,12,32,6.90
2018,01,26,12,33,6.90
2018,01,26,12,34,6.90
2018,01,26,12,35,6.90
2018,01,26,12,36,6.80
2018,01,26,12,37,6.80
2018,01,26,12,38,6.80
2018,01,26,12,39,6.80
2018,01,26,12,40,6.80
2018,01,26,12,41,6.80
2018,01,26,12,42,6.80
2018,01,26,12,43,6.70
2018,01,26,12,44,6.70
2018,01,26,12,45,6.70
2018,01,26,12,46,6.70
2018,01,26,12,47,6.70
2018,01,26,12,48,6.70
2018,01,26,12,49,6.70
2018,01,26,12,50,6.70
2018,01,26,12,51,6.70
2018,01,26,12,52,6.70
2018,01,26,12,53,6.70
2018,01,26,12,54,6.70
2018,01,26,12,55,6.70
2018,01,26,12,56,6.70
2018,01,26,12,57,6.70
2018,01,26,12,58,6.70
2018,01,26,12,59,6.70
2018,01,26,13,00,6.70
2018,01,26,13,01,6.70
2018,01,26,13,02,6.80
2018,01,26,13,03,6.80
2018,01,26,13,04,6.80
2018,01,26,13,05,6.80
2018,01,26,13,06,6.80
2018,01,26,13,07,6.80
2018,01,26,13,08,6.80
2018,01,26,13,09,6.80
2018,01,26,13,10,6.80
2018,01,26,13,11,6.90
2018,01,26,13,12,6.90
2018,01,26,13,13,6.90
2018,01,26,13,14,6.90
2018,01,26,13,15,6.90
2018,01,26,13,16,6.90
2018,01,26,13,17,6.90
2018,01,26,13,18,7.00
2018,01,26,13,19,7.00
2018,01,26,13,20,7.00
2018,01,26,13,21,7.00
2018,01,26,13,22,7.00
2018,01,26,13,23,7.00
2018,01,26,13,24,7.10
2018,01,26,13,25,7.10
2018,01,26,13,26,7.10
2018,01,26,13,27,7.10
2018,01,26,13,28,7.10
2018,01,26,13,29,7.10
2018,01,26,13,30,7.10
2018,01,26,13,31,7.10
2018,01,26,13,32,7.10
2018,01,26,13,33,7.10
2018,01,26,13,34,7.10
2018,01,26,13,35,7.10
2018,01,26,13,36,7.10
2018,01,26,13,37,7.10
2018,01,26,13,38,7.10
2018,01,26,13,39,7.10
2018,01,26,13,40,7.10
2018,01,26,13,41,7.10
2018,01,26,13,42,7.10
2018,01,26,13,43,7.10
2018,01,26,13,44,7.10
2018,01,26,13,45,7.10
2018,01,26,13,46,7.10
2018,01,26,13,47,7.10
2018,01,26,13,48,7.10
2018,01,26,13,49,7.20
2018,01,26,13,50,7.20
2018,01,26,13,51,7.20
2018,01,26,13,52,7.10
2018,01,26,13,53,7.10
2018,01,26,13,54,7.00
2018,01,26,13,55,7.00
2018,01,26,13,56,7.00
2018,01,26,13,57,7.00
2018,01,26,13,58,6.90
2018,01,26,13,59,6.90
2018,01,26,14,00,6.90
2018,01,26,14,01,6.90
2018,01,26,14,02,6.80
2018,01,26,14,03,6.80
2018,01,26,14,04,6.80
2018,01,26,14,05,6.90
2018,01,26,14,06,6.90
2018,01,26,14,07,6.90
2018,01,26,14,08,6.90
2018,01,26,14,09,6.90
2018,01,26,14,10,6.90
2018,01,26,14,11,6.90
2018,01,26,14,12,6.90
2018,01,26,14,13,6.90
2018,01,26,14,14,6.90
2018,01,26,14,15,6.90
2018,01,26,14,16,6.90
2018,01,26,14,17,6.90
2018,01,26,14,18,7.00
2018,01,26,14,19,7.00
2018,01,26,14,20,6.90
2018,01,26,14,21,6.90
2018,01,26,14,22,6.90
2018,01,26,14,23,6.90
2018,01,26,14,24,6.90
2018,01,26,14,25,6.90
2018,01,26,14,26,6.90
2018,01,26,14,27,6.90
2018,01,26,14,28,7.00
2018,01,26,14,29,7.00
2018,01,26,14,30,7.00
2018,01,26,14,31,7.10
2018,01,26,14,32,7.10
2018,01,26,14,33,7.10
2018,01,26,14,34,7.20
2018,01,26,14,35,7.10
2018,01,26,14,36,7.20
2018,01,26,14,37,7.10
2018,01,26,14,38,7.10
2018,01,26,14,39,7.20
2018,01,26,14,40,7.10
2018,01,26,14,41,7.10
2018,01,26,14,42,7.10
2018,01,26,14,43,7.10
2018,01,26,14,44,7.10
2018,01,26,14,45,7.10
2018,01,26,14,46,7.10
2018,01,26,14,47,7.10
2018,01,26,14,48,7.20
2018,01,26,14,49,7.20
2018,01,26,14,50,7.20
2018,01,26,14,51,7.20
2018,01,26,14,52,7.20
2018,01,26,14,53,7.10
2018,01,26,14,54,7.10
2018,01,26,14,55,7.00
2018,01,26,14,56,6.90
2018,01,26,14,57,6.80
2018,01,26,14,58,6.80
2018,01,26,14,59,6.70
2018,01,26,15,00,6.70
2018,01,26,15,01,6.70
2018,01,26,15,02,6.60
2018,01,26,15,03,6.60
2018,01,26,15,04,6.60
2018,01,26,15,05,6.60
2018,01,26,15,06,6.60
2018,01,26,15,07,6.50
2018,01,26,15,08,6.50
2018,01,26,15,09,6.50
2018,01,26,15,10,6.50
2018,01,26,15,11,6.50
2018,01,26,15,12,6.50
2018,01,26,15,13,6.40
2018,01,26,15,14,6.40
2018,01,26,15,15,6.40
2018,01,26,15,16,6.40
2018,01,26,15,17,6.40
2018,01,26,15,18,6.30
2018,01,26,15,19,6.30
2018,01,26,15,20,6.30
2018,01,26,15,21,6.30
2018,01,26,15,22,6.30
2018,01,26,15,23,6.30
2018,01,26,15,24,6.30
2018,01,26,15,25,6.30
2018,01,26,15,26,6.30
2018,01,26,15,27,6.30
2018,01,26,15,28,6.30
2018,01,26,15,29,6.30
2018,01,26,15,30,6.30
2018,01,26,15,31,6.30
2018,01,26,15,32,6.30
2018,01,26,15,33,6.30
2018,01,26,15,34,6.30
2018,01,26,15,35,6.30
2018,01,26,15,36,6.30
2018,01,26,15,37,6.30
2018,01,26,15,38,6.30
2018,01,26,15,39,6.20
2018,01,26,15,40,6.20
2018,01,26,15,41,6.20
2018,01,26,15,42,6.20
2018,01,26,15,43,6.20
2018,01,26,15,44,6.20
2018,01,26,15,45,6.20
2018,01,26,15,46,6.20
2018,01,26,15,47,6.20
2018,01,26,15,48,6.20
2018,01,26,15,49,6.20
2018,01,26,15,50,6.20
2018,01,26,15,51,6.20
2018,01,26,15,52,6.20
2018,01,26,15,53,6.20
2018,01,26,15,54,6.20
2018,01,26,15,55,6.20
2018,01,26,15,56,6.20
2018,01,26,15,57,6.20
2018,01,26,15,58,6.10
2018,01,26,15,59,6.10
2018,01,26,16,00,6.10
2018,01,26,16,01,6.10
2018,01,26,16,02,6.10
2018,01,26,16,03,6.00
2018,01,26,16,04,6.00
2018,01,26,16,05,6.00
2018,01,26,16,06,5.90
2018,01,26,16,07,5.90
2018,01,26,16,08,5.90
2018,01,26,16,09,5.90
2018,01,26,16,10,5.90
2018,01,26,16,11,5.90
2018,01,26,16,12,5.90
2018,01,26,16,13,5.90
2018,01,26,16,14,5.80
2018,01,26,16,15,5.80
2018,01,26,16,16,5.80
2018,01,26,16,17,5.80
2018,01,26,16,18,5.80
2018,01,26,16,19,5.80
2018,01,26,16,20,5.80
2018,01,26,16,21,5.80
2018,01,26,16,22,5.80
2018,01,26,16,23,5.80
2018,01,26,16,24,5.70
2018,01,26,16,25,5.70
2018,01,26,16,26,5.70
2018,01,26,16,27,5.70
2018,01,26,16,28,5.70
2018,01,26,16,29,5.70
2018,01,26,16,30,5.70
2018,01,26,16,31,5.70
2018,01,26,16,32,5.70
2018,01,26,16,33,5.60
2018,01,26,16,34,5.60
2018,01,26,16,35,5.60
2018,01,26,16,36,5.60
2018,01,26,16,37,5.60
2018,01,26,16,38,5.60
2018,01,26,16,39,5.60
2018,01,26,16,40,5.50
2018,01,26,16,41,5.50
2018,01,26,16,42,5.50
2018,01,26,16,43,5.50
2018,01,26,16,44,5.40
2018,01,26,16,45,5.40
2018,01,26,16,46,5.40
2018,01,26,16,47,5.40
2018,01,26,16,48,5.40
2018,01,26,16,49,5.30
2018,01,26,16,50,5.30
2018,01,26,16,51,5.30
2018,01,26,16,52,5.30
2018,01,26,16,53,5.30
2018,01,26,16,54,5.30
2018,01,26,16,55,5.20
2018,01,26,16,56,5.20
2018,01,26,16,57,5.20
2018,01,26,16,58,5.20
2018,01,26,16,59,5.20
2018,01,26,17,00,5.10
2018,01,26,17,01,5.10
2018,01,26,17,02,5.10
2018,01,26,17,03,5.10
2018,01,26,17,04,5.00
2018,01,26,17,05,5.00
2018,01,26,17,06,5.00
2018,01,26,17,07,4.90
2018,01,26,17,08,4.90
2018,01,26,17,09,4.90
2018,01,26,17,10,4.90
2018,01,26,17,11,4.90
2018,01,26,17,12,4.80
2018,01,26,17,13,4.80
2018,01,26,17,14,4.80
2018,01,26,17,15,4.80
2018,01,26,17,16,4.80
2018,01,26,17,17,4.80
2018,01,26,17,18,4.70
2018,01,26,17,19,4.70
2018,01,26,17,20,4.70
2018,01,26,17,21,4.70
2018,01,26,17,22,4.70
2018,01,26,17,23,4.70
2018,01,26,17,24,4.70
2018,01,26,17,25,4.70
2018,01,26,17,26,4.60
2018,01,26,17,27,4.60
2018,01,26,17,28,4.60
2018,01,26,17,29,4.60
2018,01,26,17,30,4.60
2018,01,26,17,31,4.60
2018,01,26,17,32,4.50
2018,01,26,17,33,4.50
2018,01,26,17,34,4.50
2018,01,26,17,35,4.50
2018,01,26,17,36,4.40
2018,01,26,17,37,4.40
2018,01,26,17,38,4.40
2018,01,26,17,39,4.40
2018,01,26,17,40,4.40
2018,01,26,17,41,4.40
2018,01,26,17,42,4.30
2018,01,26,17,43,4.30
2018,01,26,17,44,4.30
2018,01,26,17,45,4.30
2018,01,26,17,46,4.30
2018,01,26,17,47,4.30
2018,01,26,17,48,4.30
2018,01,26,17,49,4.30
2018,01,26,17,50,4.30
2018,01,26,17,51,4.20
2018,01,26,17,52,4.20
2018,01,26,17,53,4.20
2018,01,26,17,54,4.20
2018,01,26,17,55,4.20
2018,01,26,17,56,4.20
2018,01,26,17,57,4.20
2018,01,26,17,58,4.20
2018,01,26,17,59,4.20
2018,01,26,18,00,4.20
2018,01,26,18,01,4.10
2018,01,26,18,02,4.10
2018,01,26,18,03,4.10
2018,01,26,18,04,4.10
2018,01,26,18,05,4.10
2018,01,26,18,06,4.10
2018,01,26,18,07,4.10
2018,01,26,18,08,4.10
2018,01,26,18,09,4.10
2018,01,26,18,10,4.10
2018,01,26,18,11,4.10
2018,01,26,18,12,4.10
2018,01,26,18,13,4.10
2018,01,26,18,14,4.10
2018,01,26,18,15,4.10
2018,01,26,18,16,4.10
2018,01,26,18,17,4.10
2018,01,26,18,18,4.10
2018,01,26,18,19,4.10
2018,01,26,18,20,4.10
2018,01,26,18,21,4.00
2018,01,26,18,22,4.00
2018,01,26,18,23,4.00
2018,01,26,18,24,4.00
2018,01,26,18,25,4.10
2018,01,26,18,26,4.00
2018,01,26,18,27,4.10
2018,01,26,18,28,4.10
2018,01,26,18,29,4.00
2018,01,26,18,30,4.00
2018,01,26,18,31,4.00
2018,01,26,18,32,4.00
2018,01,26,18,33,4.00
2018,01,26,18,34,4.00
2018,01,26,18,35,4.00
2018,01,26,18,36,4.00
2018,01,26,18,37,4.00
2018,01,26,18,38,4.00
2018,01,26,18,39,4.00
2018,01,26,18,40,4.00
2018,01,26,18,41,4.00
2018,01,26,18,42,4.10
2018,01,26,18,43,4.10
2018,01,26,18,44,4.10
2018,01,26,18,45,4.10
2018,01,26,18,46,4.10
2018,01,26,18,47,4.10
2018,01,26,18,48,4.10
2018,01,26,18,49,4.10
2018,01,26,18,50,4.10
2018,01,26,18,51,4.10
2018,01,26,18,52,4.10
2018,01,26,18,53,4.10
2018,01,26,18,54,4.10
2018,01,26,18,55,4.10
2018,01,26,18,56,4.10
2018,01,26,18,57,4.10
2018,01,26,18,58,4.10
2018,01,26,18,59,4.10
2018,01,26,19,00,4.20
2018,01,26,19,01,4.20
2018,01,26,19,02,4.10
2018,01,26,19,03,4.10
2018,01,26,19,04,4.10
2018,01,26,19,05,4.10
2018,01,26,19,06,4.10
2018,01,26,19,07,4.10
2018,01,26,19,08,4.10
2018,01,26,19,09,4.10
2018,01,26,19,10,4.10
2018,01,26,19,11,4.10
2018,01,26,19,12,4.10
2018,01,26,19,13,4.10
2018,01,26,19,14,4.10
2018,01,26,19,15,4.10
2018,01,26,19,16,4.10
2018,01,26,19,17,4.00
2018,01,26,19,18,4.10
2018,01,26,19,19,4.00
2018,01,26,19,20,4.10
2018,01,26,19,21,4.10
2018,01,26,19,22,4.10
2018,01,26,19,23,4.10
2018,01,26,19,24,4.00
2018,01,26,19,25,4.00
2018,01,26,19,26,4.10
2018,01,26,19,27,4.10
2018,01,26,19,28,4.10
2018,01,26,19,29,4.10
2018,01,26,19,30,4.10
2018,01,26,19,31,4.10
2018,01,26,19,32,4.10
2018,01,26,19,33,4.10
2018,01,26,19,34,4.10
2018,01,26,19,35,4.00
2018,01,26,19,36,4.00
2018,01,26,19,37,4.00
2018,01,26,19,38,4.00
2018,01,26,19,39,4.00
2018,01,26,19,40,4.00
2018,01,26,19,41,4.00
2018,01,26,19,42,4.00
2018,01,26,19,43,4.00
2018,01,26,19,44,4.10
2018,01,26,19,45,4.10
2018,01,26,19,46,4.10
2018,01,26,19,47,4.10
2018,01,26,19,48,4.10
2018,01,26,19,49,4.10
2018,01,26,19,50,4.10
2018,01,26,19,51,4.10
2018,01,26,19,52,4.10
2018,01,26,19,53,4.10
2018,01,26,19,54,4.10
2018,01,26,19,55,4.10
2018,01,26,19,56,4.20
2018,01,26,19,57,4.20
2018,01,26,19,58,4.20
2018,01,26,19,59,4.20
2018,01,26,20,00,4.20
2018,01,26,20,01,4.20
2018,01,26,20,02,4.20
2018,01,26,20,03,4.20
2018,01,26,20,04,4.20
2018,01,26,20,05,4.20
2018,01,26,20,06,4.20
2018,01,26,20,07,4.20
2018,01,26,20,08,4.20
2018,01,26,20,09,4.20
2018,01,26,20,10,4.20
2018,01,26,20,11,4.20
2018,01,26,20,12,4.20
2018,01,26,20,13,4.20
2018,01,26,20,14,4.20
2018,01,26,20,15,4.20
2018,01,26,20,16,4.20
2018,01,26,20,17,4.20
2018,01,26,20,18,4.20
2018,01,26,20,19,4.10
2018,01,26,20,20,4.10
2018,01,26,20,21,4.10
2018,01,26,20,22,4.10
2018,01,26,20,23,4.10
2018,01,26,20,24,4.10
2018,01,26,20,25,4.10
2018,01,26,20,26,4.00
2018,01,26,20,27,4.00
2018,01,26,20,28,4.00
2018,01,26,20,29,4.00
2018,01,26,20,30,4.00
2018,01,26,20,31,4.00
2018,01,26,20,32,4.00
2018,01,26,20,33,3.90
2018,01,26,20,34,3.90
2018,01,26,20,35,3.90
2018,01,26,20,36,3.90
2018,01,26,20,37,3.90
2018,01,26,20,38,3.90
2018,01,26,20,39,3.90
2018,01,26,20,40,3.90
2018,01,26,20,41,3.90
2018,01,26,20,42,3.90
2018,01,26,20,43,3.90
2018,01,26,20,44,3.90
2018,01,26,20,45,3.80
2018,01,26,20,46,3.80
2018,01,26,20,47,3.80
2018,01,26,20,48,3.80
2018,01,26,20,49,3.80
2018,01,26,20,50,3.80
2018,01,26,20,51,3.80
2018,01,26,20,52,3.80
2018,01,26,20,53,3.80
2018,01,26,20,54,3.80
2018,01,26,20,55,3.80
2018,01,26,20,56,3.80
2018,01,26,20,57,3.80
2018,01,26,20,58,3.90
2018,01,26,20,59,3.90
2018,01,26,21,00,3.90
2018,01,26,21,01,3.90
2018,01,26,21,02,3.90
2018,01,26,21,03,3.90
2018,01,26,21,04,3.90
2018,01,26,21,05,3.90
2018,01,26,21,06,3.90
2018,01,26,21,07,3.90
2018,01,26,21,08,3.90
2018,01,26,21,09,3.90
2018,01,26,21,10,3.90
2018,01,26,21,11,3.90
2018,01,26,21,12,3.80
2018,01,26,21,13,3.80
2018,01,26,21,14,3.80
2018,01,26,21,15,3.80
2018,01,26,21,16,3.80
2018,01,26,21,17,3.80
2018,01,26,21,18,3.80
2018,01,26,21,19,3.80
2018,01,26,21,20,3.80
2018,01,26,21,21,3.80
2018,01,26,21,22,3.80
2018,01,26,21,23,3.80
2018,01,26,21,24,3.80
2018,01,26,21,25,3.80
2018,01,26,21,26,3.80
2018,01,26,21,27,3.80
2018,01,26,21,28,3.80
2018,01,26,21,29,3.80
2018,01,26,21,30,3.80
2018,01,26,21,31,3.80
2018,01,26,21,32,3.80
2018,01,26,21,33,3.80
2018,01,26,21,34,3.80
2018,01,26,21,35,3.80
2018,01,26,21,36,3.80
2018,01,26,21,37,3.80
2018,01,26,21,38,3.80
2018,01,26,21,39,3.80
2018,01,26,21,40,3.80
2018,01,26,21,41,3.80
2018,01,26,21,42,3.80
2018,01,26,21,43,3.80
2018,01,26,21,44,3.70
2018,01,26,21,45,3.80
2018,01,26,21,46,3.70
2018,01,26,21,47,3.70
2018,01,26,21,48,3.70
2018,01,26,21,49,3.70
2018,01,26,21,50,3.70
2018,01,26,21,51,3.70
2018,01,26,21,52,3.70
2018,01,26,21,53,3.70
2018,01,26,21,54,3.70
2018,01,26,21,55,3.80
2018,01,26,21,56,3.80
2018,01,26,21,57,3.80
2018,01,26,21,58,3.80
2018,01,26,21,59,3.80
2018,01,26,22,00,3.80
2018,01,26,22,01,3.80
2018,01,26,22,02,3.80
2018,01,26,22,03,3.80
2018,01,26,22,04,3.80
2018,01,26,22,05,3.80
2018,01,26,22,06,3.80
2018,01,26,22,07,3.80
2018,01,26,22,08,3.80
2018,01,26,22,09,3.80
2018,01,26,22,10,3.80
2018,01,26,22,11,3.80
2018,01,26,22,12,3.80
2018,01,26,22,13,3.80
2018,01,26,22,14,3.80
2018,01,26,22,15,3.80
2018,01,26,22,16,3.80
2018,01,26,22,17,3.80
2018,01,26,22,18,3.80
2018,01,26,22,19,3.80
2018,01,26,22,20,3.80
2018,01,26,22,21,3.80
2018,01,26,22,22,3.80
2018,01,26,22,23,3.80
2018,01,26,22,24,3.90
2018,01,26,22,25,3.90
2018,01,26,22,26,3.90
2018,01,26,22,27,3.90
2018,01,26,22,28,3.90
2018,01,26,22,29,3.90
2018,01,26,22,30,3.90
2018,01,26,22,31,3.90
2018,01,26,22,32,3.90
2018,01,26,22,33,3.90
2018,01,26,22,34,4.00
2018,01,26,22,35,4.00
2018,01,26,22,36,4.00
2018,01,26,22,37,4.00
2018,01,26,22,38,4.00
2018,01,26,22,39,3.90
2018,01,26,22,40,3.90
2018,01,26,22,41,3.90
2018,01,26,22,42,3.90
2018,01,26,22,43,3.90
2018,01,26,22,44,3.80
2018,01,26,22,45,3.80
2018,01,26,22,46,3.80
2018,01,26,22,47,3.90
2018,01,26,22,48,3.90
2018,01,26,22,49,3.90
2018,01,26,22,50,3.90
2018,01,26,22,51,3.90
2018,01,26,22,52,3.90
2018,01,26,22,53,3.90
2018,01,26,22,54,3.90
2018,01,26,22,55,3.90
2018,01,26,22,56,3.90
2018,01,26,22,57,3.90
2018,01,26,22,58,3.90
2018,01,26,22,59,3.90
2018,01,26,23,00,4.00
2018,01,26,23,01,4.00
2018,01,26,23,02,4.00
2018,01,26,23,03,4.00
2018,01,26,23,04,4.00
2018,01,26,23,05,4.00
2018,01,26,23,06,4.00
2018,01,26,23,07,4.00
2018,01,26,23,08,4.00
2018,01,26,23,09,4.00
2018,01,26,23,10,4.00
2018,01,26,23,11,3.90
2018,01,26,23,12,3.90
2018,01,26,23,13,3.90
2018,01,26,23,14,4.00
2018,01,26,23,15,4.00
2018,01,26,23,16,4.00
2018,01,26,23,17,4.00
2018,01,26,23,18,4.00
2018,01,26,23,19,4.00
2018,01,26,23,20,4.00
2018,01,26,23,21,4.00
2018,01,26,23,22,4.00
2018,01,26,23,23,4.00
2018,01,26,23,24,4.00
2018,01,26,23,25,4.00
2018,01,26,23,26,3.90
2018,01,26,23,27,3.90
2018,01,26,23,28,3.90
2018,01,26,23,29,3.90
2018,01,26,23,30,3.90
2018,01,26,23,31,3.90
2018,01,26,23,32,3.90
2018,01,26,23,33,3.90
2018,01,26,23,34,3.80
2018,01,26,23,35,3.80
2018,01,26,23,36,3.80
2018,01,26,23,37,3.80
2018,01,26,23,38,3.80
2018,01,26,23,39,3.80
2018,01,26,23,40,3.80
2018,01,26,23,41,3.80
2018,01,26,23,42,3.80
2018,01,26,23,43,3.80
2018,01,26,23,44,3.80
2018,01,26,23,45,3.70
2018,01,26,23,46,3.70
2018,01,26,23,47,3.70
2018,01,26,23,48,3.70
2018,01,26,23,49,3.70
2018,01,26,23,50,3.70
2018,01,26,23,51,3.70
2018,01,26,23,52,3.70
2018,01,26,23,53,3.70
2018,01,26,23,54,3.70
2018,01,26,23,55,3.70
2018,01,26,23,56,3.70
2018,01,26,23,57,3.70
2018,01,26,23,58,3.70
2018,01,26,23,59,3.70
